This is the latest recevied weather packets stored in our database for station/object KD4WXI. If no packets are shown the sender has not sent any weather packets the latest 10 day(s).
| Time | Temp. | Humidity | Pressure | Rain* | Wind** | Luminosity | Snow |
|---|---|---|---|---|---|---|---|
| 1777755897 | 15.56° C | 49% | 1011.9 hPa | 0 mm | - | 59 W/m² | - |
| 1777755595 | 15.56° C | 42% | 1012 hPa | 0 mm | - | 75 W/m² | - |
| 1777755290 | 15.56° C | 43% | 1011.7 hPa | 0 mm | - | 51 W/m² | - |
| 1777754988 | 15.56° C | 42% | 1011.8 hPa | 0 mm | - | 48 W/m² | - |
| 1777754685 | 15.56° C | 43% | 1011.9 hPa | 0 mm | - | 45 W/m² | - |
| 1777754383 | 16.11° C | 40% | 1012.1 hPa | 0 mm | - | 45 W/m² | - |
| 1777754080 | 16.11° C | 42% | 1011.8 hPa | 0 mm | - | 47 W/m² | - |
| 1777753776 | 16.11° C | 43% | 1012 hPa | 0 mm | - | 50 W/m² | - |
| 1777753473 | 16.67° C | 43% | 1012.1 hPa | 0 mm | - | 75 W/m² | - |
| 1777753171 | 16.67° C | 40% | 1012.2 hPa | 0 mm | - | 378 W/m² | - |
| 1777752866 | 16.67° C | 40% | 1012.3 hPa | 0 mm | - | 422 W/m² | - |
| 1777752564 | 16.67° C | 43% | 1012.4 hPa | 0 mm | - | 470 W/m² | - |
| 1777752259 | 16.67° C | 43% | 1012.4 hPa | 0 mm | - | 553 W/m² | - |
| 1777751957 | 16.11° C | 39% | 1012.3 hPa | 0 mm | - | 573 W/m² | - |
| 1777751654 | 16.67° C | 42% | 1012.5 hPa | 0 mm | - | 596 W/m² | - |
| 1777751350 | 16.67° C | 42% | 1012.6 hPa | 0 mm | - | 561 W/m² | - |
| 1777751047 | 16.11° C | 41% | 1012.7 hPa | 0 mm | - | 590 W/m² | - |
| 1777750743 | 16.67° C | 42% | 1012.7 hPa | 0 mm | - | 210 W/m² | - |
| 1777750440 | 16.11° C | 41% | 1012.9 hPa | 0 mm | - | 542 W/m² | - |
| 1777750135 | 16.11° C | 45% | 1013 hPa | 0 mm | - | 364 W/m² | - |
| 1777749833 | 16.67° C | 41% | 1012.8 hPa | 0 mm | - | 743 W/m² | - |
| 1777749530 | 16.11° C | 44% | 1013.2 hPa | 0 mm | - | 731 W/m² | - |
| 1777749228 | 16.11° C | 45% | 1013.1 hPa | 0 mm | - | 824 W/m² | - |
| 1777748925 | 16.11° C | 44% | 1013.4 hPa | 0 mm | - | 323 W/m² | - |
| 1777748622 | 15.56° C | 44% | 1013.4 hPa | 0 mm | - | 374 W/m² | - |
* Rain latest hour (hover to see other rain measurements)
** Current wind speed in m/s (hover to see current wind gust speed)